GFSNIL_sfc_thetae_000.txt.gz
Theta_e
314 315 315 314 312 311 310 310 309 306 304 302 300 298 297 296 296 293 291 290 288 286
311 313 314 313 313 312 311 310 307 306 303 302 300 298 296 295 294 292 290 289 288 288
309 312 314 313 311 311 311 309 307 305 304 302 301 298 295 294 294 292 290 289 288 286
305 308 311 312 311 311 310 309 306 305 304 302 300 298 296 295 292 291 289 286 286 285
303 305 308 309 311 310 309 308 305 304 303 302 300 298 296 293 292 291 289 288 286 286
301 304 305 307 308 307 307 305 302 302 301 301 300 298 297 295 293 292 291 289 288 287
294 303 304 305 304 303 303 303 301 302 302 300 300 298 297 294 293 293 292 291 290 288
294 296 303 301 300 300 299 301 300 300 300 300 299 297 297 295 293 292 291 290 290 290
291 292 297 297 295 296 296 297 296 295 296 296 296 294 297 296 294 292 291 290 290 289
290 291 294 296 294 294 294 293 293 293 293 293 294 295 296 295 295 292 291 291 289 287
289 291 293 296 294 294 294 293 293 291 291 291 292 295 296 293 293 292 291 290 289 289
289 289 292 292 294 294 292 292 291 291 290 290 290 294 295 293 291 290 290 290 289 289
289 288 290 291 292 292 291 291 292 290 290 290 290 293 294 293 292 289 289 289 288 288
289 288 290 291 291 290 290 291 289 289 289 289 289 290 294 294 290 291 289 288 287 288

GFSNIL_sfc_thetae_003.txt.gz
Theta_e
300 305 309 314 314 313 313 313 313 311 311 309 308 307 305 304 305 304 307 302 301 294
299 302 306 309 315 314 314 313 312 312 310 308 307 305 304 303 302 301 303 300 299 298
296 300 303 305 310 313 313 312 310 310 309 306 306 305 302 301 300 300 301 298 298 299
294 295 295 302 306 313 312 311 309 308 307 305 302 301 300 298 296 296 296 294 293 293
293 294 295 293 302 307 311 310 308 307 306 304 302 300 299 295 294 293 291 291 294 293
292 292 293 293 293 303 310 309 306 305 304 302 301 299 299 297 295 294 294 292 292 293
291 292 292 292 292 295 307 307 305 305 304 302 301 299 299 297 296 294 293 292 292 291
289 291 291 291 291 292 303 305 303 303 303 302 301 299 299 298 297 295 292 291 291 291
288 289 289 290 291 291 300 301 300 300 301 300 299 296 299 299 296 295 293 291 290 290
286 287 288 289 290 291 298 298 298 299 300 299 299 298 298 296 298 295 295 292 290 289
284 285 286 288 290 291 297 296 297 296 296 296 297 298 297 295 297 294 294 293 291 290
283 283 284 287 290 290 293 294 294 292 292 293 293 296 297 295 293 292 291 291 291 291
280 281 284 288 289 289 291 292 293 291 291 292 292 294 296 295 294 291 291 291 290 290
278 280 284 288 289 289 290 292 290 290 290 291 291 291 295 296 294 292 291 290 289 290

GFSNIL_sfc_thetae_006.txt.gz
Theta_e
296 297 297 297 300 305 305 314 315 314 314 314 313 312 311 313 310 311 311 310 307 301
296 295 295 295 297 297 305 307 314 313 313 314 313 312 312 311 310 310 311 310 307 301
296 296 295 294 295 296 298 304 310 313 313 313 312 311 311 310 310 308 310 306 307 304
295 296 295 295 295 295 296 295 299 312 312 311 310 309 308 308 308 305 306 305 304 304
293 295 295 295 294 295 295 294 297 305 311 310 308 308 306 304 303 302 300 301 301 303
288 291 292 293 295 294 293 292 292 296 309 307 306 305 306 305 303 303 303 301 300 302
282 287 289 291 294 294 292 291 291 294 309 306 305 304 304 303 304 303 305 306 304 304
279 281 281 286 291 293 291 291 292 292 307 305 304 301 302 300 301 300 300 300 299 302
277 277 279 285 287 291 290 290 291 292 304 302 301 297 299 300 300 298 295 294 296 297
275 276 278 279 287 289 289 289 290 292 302 302 302 298 298 297 300 297 295 294 293 291
275 276 277 280 284 288 288 289 290 293 300 301 301 298 297 295 299 296 294 294 292 292
276 275 277 278 281 286 287 289 289 292 293 295 295 297 297 296 295 292 292 292 292 291
276 275 275 277 281 283 286 288 289 290 292 293 292 296 296 296 296 291 292 292 291 290
273 276 276 278 281 282 285 288 288 289 291 292 293 293 296 296 294 294 292 292 291 292

GFSNIL_sfc_thetae_012.txt.gz
Theta_e
280 280 280 282 284 284 287 294 296 296 295 296 297 301 303 314 314 313 312 311 309 308
278 278 279 280 281 282 285 288 295 296 294 295 295 296 300 303 313 313 313 311 309 308
277 278 278 278 278 280 283 285 289 294 294 294 293 295 298 299 311 312 312 311 309 307
276 275 276 277 278 279 280 284 285 291 294 293 292 292 293 296 309 310 310 310 307 305
274 275 274 275 276 278 278 280 283 284 290 292 291 291 291 293 297 310 308 308 307 305
272 273 273 274 274 276 277 278 279 281 284 291 291 291 291 291 298 308 309 308 306 305
271 271 271 273 274 274 276 277 277 280 283 287 290 289 290 290 294 301 309 309 306 305
271 271 271 271 272 273 276 277 277 277 278 283 287 289 289 290 292 295 308 306 306 306
271 270 270 271 272 274 274 276 276 276 278 279 283 287 291 291 290 293 304 304 305 304
270 269 269 270 270 270 271 274 276 276 278 279 282 287 291 290 291 292 304 304 303 301
267 267 268 268 268 269 270 272 275 276 278 281 286 290 291 291 291 292 302 303 303 300
266 265 266 265 266 268 268 270 272 277 279 280 286 290 290 291 289 291 299 300 301 300
265 263 263 265 265 267 267 269 271 276 278 281 283 287 289 291 290 293 297 297 297 295
263 263 265 268 269 268 268 270 270 275 277 279 283 285 290 291 290 296 296 296 296 297

GFSNIL_sfc_thetae_015.txt.gz
Theta_e
278 277 277 276 277 277 277 278 281 282 285 287 295 294 294 294 296 300 299 312 311 308
277 276 275 276 276 275 277 279 280 281 283 288 293 293 293 293 293 299 299 312 310 308
276 276 275 275 274 276 276 277 277 279 281 282 286 294 292 292 292 294 299 303 310 308
275 275 275 274 274 274 275 276 277 278 278 282 284 286 291 291 291 291 294 297 309 307
275 274 273 273 272 273 272 274 274 276 277 278 280 283 291 290 290 290 290 296 308 307
273 273 272 272 273 273 273 272 273 274 275 277 280 282 287 290 290 289 290 294 297 307
272 272 272 272 271 271 272 272 272 273 275 277 278 279 284 288 289 289 290 292 295 306
272 272 271 271 271 270 271 272 272 273 275 277 277 278 280 285 289 288 288 289 294 307
271 271 270 269 269 269 269 270 270 271 272 275 277 279 281 283 285 288 287 287 291 299
270 268 268 267 267 267 267 268 269 270 271 273 277 280 282 283 283 287 288 287 288 291
267 266 266 265 265 266 267 267 268 268 269 272 275 280 281 283 283 284 287 288 288 290
265 263 263 263 264 266 266 267 267 268 268 269 272 279 282 284 286 286 287 288 289 291
263 262 262 264 266 267 268 270 270 270 270 270 271 278 281 285 287 286 287 288 289 291
262 262 264 265 265 266 267 270 270 270 270 270 274 277 282 287 285 286 286 288 291 296

GFSNIL_sfc_thetae_021.txt.gz
Theta_e
276 276 276 276 275 275 275 276 277 276 276 276 277 275 275 276 277 279 284 286 292 292
275 274 274 275 274 275 276 276 276 276 275 275 275 275 275 277 278 279 280 283 288 291
274 274 274 274 273 274 275 275 275 275 274 274 274 274 274 274 275 276 279 284 285 291
273 273 273 273 273 273 274 274 274 274 274 274 273 274 274 273 274 276 277 279 282 286
272 272 271 271 272 273 273 273 273 273 272 272 272 273 272 272 274 274 275 278 281 281
271 270 270 271 272 272 272 272 271 271 270 270 271 271 272 272 273 274 275 277 280 283
269 270 270 270 271 271 271 270 269 269 269 270 270 270 271 272 272 273 275 278 279 281
269 270 270 270 270 269 269 268 268 268 268 269 269 271 271 272 272 273 275 277 279 281
269 269 268 268 268 267 267 267 266 267 268 268 270 272 274 275 274 274 275 276 278 280
267 266 266 266 265 265 265 266 266 267 267 267 269 273 275 275 274 274 275 276 278 279
265 264 264 263 263 263 265 265 265 265 266 267 270 274 276 276 275 274 275 275 278 279
264 262 262 261 262 264 263 263 264 266 266 267 268 274 277 277 274 273 274 275 277 279
262 260 260 261 263 263 262 264 264 264 266 268 269 275 278 278 275 272 273 275 277 280
260 259 261 262 262 262 262 263 262 264 266 268 269 271 276 279 276 274 273 274 276 281

GFSNIL_sfc_thetae_024.txt.gz
Theta_e
275 274 274 274 274 274 274 274 276 276 277 276 276 276 276 275 275 275 275 275 275 277
274 273 273 273 273 273 274 275 275 276 275 275 276 275 275 275 274 275 276 276 278 279
273 273 273 273 272 273 273 274 274 274 274 274 274 275 274 274 275 274 274 275 275 276
273 273 272 272 272 272 273 273 273 273 273 273 273 274 273 273 273 273 273 273 273 274
272 272 271 270 271 272 272 272 272 273 272 271 271 272 271 271 271 272 272 273 273 274
270 270 270 270 271 271 271 271 271 271 270 269 270 270 270 270 270 271 271 272 272 273
269 269 269 270 270 270 270 269 269 269 269 269 269 269 270 270 270 270 271 272 273 273
269 269 269 269 269 269 269 268 268 268 267 268 268 269 270 270 271 271 271 272 273 274
268 268 268 268 267 267 267 266 266 267 267 267 268 271 273 274 273 274 273 273 274 275
267 266 266 266 265 265 264 265 266 265 265 265 266 271 274 275 274 275 274 273 274 274
265 264 264 263 263 263 264 265 264 264 265 265 266 271 273 275 275 275 275 275 274 274
263 262 261 260 261 263 264 263 263 264 263 263 264 270 273 274 273 274 275 276 275 274
262 260 260 261 261 263 262 263 264 263 264 264 264 271 272 274 273 272 275 275 275 276
260 259 260 261 261 261 261 262 261 263 264 265 267 267 272 274 272 272 274 274 274 275

GFSNIL_sfc_thetae_027.txt.gz
Theta_e
278 278 277 276 276 275 275 276 277 277 277 278 278 278 278 278 278 278 278 277 277 277
277 276 275 275 275 275 275 275 276 276 276 276 276 277 277 277 277 277 277 277 277 276
276 275 275 274 274 274 274 274 274 274 275 275 275 275 275 275 276 276 276 276 276 276
274 274 274 273 273 273 273 273 273 274 274 274 274 274 274 273 274 273 273 274 274 274
273 273 272 272 272 273 272 273 273 273 272 272 272 272 271 271 271 271 271 271 272 272
271 271 271 271 271 272 272 272 272 271 270 270 270 271 270 270 270 271 271 271 271 271
270 270 270 271 271 271 271 270 270 270 269 269 269 269 270 270 270 270 271 272 272 272
270 270 270 270 270 270 269 269 269 268 268 268 269 269 269 270 271 272 272 273 274 274
269 268 268 268 268 267 267 267 267 267 267 267 267 270 272 273 271 273 273 273 274 275
267 267 267 266 266 266 265 266 266 266 266 265 266 270 272 273 272 272 272 273 274 275
265 265 265 264 264 264 265 265 265 265 265 265 266 270 272 273 273 272 272 273 274 275
264 263 263 261 263 263 264 263 263 265 264 264 264 270 272 273 271 271 272 273 274 275
263 261 261 262 262 263 262 263 264 264 264 265 265 269 271 273 271 269 271 272 274 276
262 260 261 262 261 261 261 262 261 263 265 266 267 267 272 273 271 271 271 272 273 274

GFSNIL_sfc_thetae_030.txt.gz
Theta_e
286 284 283 282 282 281 281 281 281 281 281 281 281 281 281 281 281 281 281 280 281 281
284 282 281 281 281 280 280 279 280 280 280 280 280 280 280 280 280 280 280 281 281 280
282 281 280 280 279 279 279 279 279 279 279 279 279 279 279 279 279 278 279 279 278 279
280 279 279 278 278 278 278 278 277 277 277 277 277 277 277 277 277 276 276 276 276 277
279 278 277 277 277 277 277 277 277 276 276 276 275 275 275 274 275 274 273 274 274 274
277 276 276 276 276 276 276 276 276 275 274 274 274 274 274 273 273 273 273 273 273 272
276 275 275 275 275 274 275 274 274 274 273 273 273 272 273 272 272 272 273 273 274 274
274 274 274 273 274 273 273 273 273 272 272 272 272 272 272 272 272 273 273 274 274 275
273 272 272 272 272 271 271 271 271 271 271 271 271 272 274 274 273 273 272 272 273 274
271 270 270 270 269 269 270 270 270 270 270 269 270 272 274 274 273 273 273 273 273 273
269 269 268 268 268 268 269 269 269 269 268 269 270 272 273 274 273 273 273 273 274 273
268 267 267 265 267 268 268 268 268 268 268 267 267 271 273 273 272 272 272 273 274 274
267 266 265 266 266 267 267 267 267 267 267 267 267 271 273 273 273 271 272 273 274 275
266 265 265 265 266 265 265 265 265 265 268 269 270 270 273 274 273 273 272 272 271 273

GFSNIL_sfc_thetae_033.txt.gz
Theta_e
290 289 288 287 286 285 284 285 285 284 283 283 283 283 283 282 282 283 283 282 282 282
288 287 286 285 285 284 284 283 283 282 281 281 281 281 281 281 281 282 282 282 282 281
287 286 285 285 283 283 282 282 281 280 280 280 280 280 280 280 280 280 280 280 280 280
286 285 284 283 282 281 281 280 279 279 279 279 279 279 278 278 278 277 277 278 278 277
284 283 281 280 280 280 279 279 279 278 278 277 277 277 276 276 276 276 275 276 275 275
282 280 279 279 279 278 278 277 278 277 276 276 276 275 275 275 275 275 275 274 274 274
279 278 278 278 277 277 277 276 276 276 275 275 274 274 274 274 274 274 274 275 275 274
278 278 277 276 276 276 275 275 275 274 274 274 274 274 274 274 274 274 274 275 275 274
277 276 275 275 275 274 273 273 273 273 272 272 273 275 276 276 274 274 273 272 274 274
275 274 274 274 273 272 272 272 272 272 272 272 272 275 275 276 274 273 273 273 273 273
274 273 272 271 271 271 271 271 271 271 271 271 271 274 274 275 274 273 273 273 273 273
273 272 271 270 270 270 271 270 270 270 270 269 269 272 274 275 273 273 273 274 275 274
272 270 269 269 269 270 270 269 270 269 269 269 268 272 274 275 274 272 273 274 275 275
270 269 269 269 269 268 267 268 267 267 269 270 271 271 274 276 274 273 273 272 271 272

GFSNIL_sfc_thetae_036.txt.gz
Theta_e
287 287 286 285 284 282 281 281 281 280 280 280 280 280 280 279 279 280 280 279 279 279
287 285 284 283 282 281 280 281 280 279 279 279 279 279 279 279 279 279 279 279 280 279
286 284 282 281 280 280 279 279 278 278 278 278 278 279 279 278 279 278 278 278 278 278
284 283 281 280 279 278 278 278 278 278 277 278 278 278 277 277 277 277 277 277 276 276
282 281 280 279 278 278 277 277 277 277 277 276 276 276 276 276 276 275 274 275 274 274
281 280 279 278 277 277 276 276 276 276 275 275 276 275 275 274 274 274 274 274 273 273
280 279 278 277 276 276 275 275 275 275 276 276 274 274 274 274 274 273 273 274 274 274
279 277 276 275 275 275 275 275 275 274 274 274 273 273 273 274 273 273 273 274 275 274
276 276 275 275 275 275 275 275 274 274 273 273 273 275 277 277 274 275 274 273 273 274
276 275 274 275 274 274 273 273 273 272 272 271 272 275 276 277 275 274 273 273 273 273
274 274 273 273 272 272 272 272 271 271 271 270 271 274 275 276 275 273 273 273 274 274
273 272 272 272 271 272 272 272 271 271 269 269 268 272 274 276 273 273 273 274 275 275
273 273 272 271 271 271 272 271 271 270 269 268 265 272 274 275 274 272 273 274 274 274
273 271 271 271 271 270 269 270 268 268 269 268 269 270 274 276 274 273 273 271 271 271

GFSNIL_sfc_thetae_042.txt.gz
Theta_e
288 287 287 286 286 285 285 284 283 282 281 280 280 280 279 278 279 278 279 277 278 278
288 287 287 286 286 285 285 284 282 282 281 280 279 279 278 278 278 278 279 278 278 277
288 288 287 284 284 283 283 282 281 281 280 279 279 278 278 277 278 277 278 278 278 278
287 286 286 284 283 282 281 281 280 280 279 279 278 278 277 277 277 277 277 277 277 277
285 284 284 283 283 282 281 281 280 279 279 278 277 277 276 276 276 275 275 275 275 275
284 283 284 283 282 281 281 280 279 279 278 277 277 276 275 275 275 274 274 274 274 274
284 283 283 283 281 281 280 279 278 278 277 276 276 275 275 275 274 274 274 275 274 274
284 283 282 281 279 279 279 278 277 276 276 275 275 275 274 275 274 274 274 275 275 275
282 281 280 279 279 278 277 276 276 275 275 274 274 278 279 276 274 275 275 274 275 275
281 279 278 278 277 277 276 275 275 274 274 273 273 280 280 280 277 276 275 275 275 275
278 277 277 276 276 275 275 274 273 273 273 273 273 280 280 279 277 275 275 275 274 274
277 276 275 275 275 274 274 273 273 273 272 272 272 279 279 278 274 275 274 275 275 275
277 276 275 275 274 274 274 274 273 273 272 272 270 279 278 278 275 272 273 274 275 276
276 276 276 275 275 274 273 272 272 271 270 270 270 274 278 279 274 273 273 273 273 273

GFSNIL_sfc_thetae_045.txt.gz
Theta_e
289 287 288 286 286 285 285 285 284 283 282 280 280 280 280 279 279 279 279 278 278 278
288 288 287 286 287 286 286 285 283 284 282 281 281 280 279 279 279 278 279 278 278 277
288 288 288 286 286 286 285 284 283 283 282 281 280 280 279 278 278 278 278 278 278 277
288 288 287 286 285 285 284 283 282 282 281 281 280 279 279 278 278 277 277 277 277 277
286 285 286 285 284 284 283 283 282 282 281 280 280 279 278 277 277 277 276 276 275 275
285 285 285 286 284 283 283 282 282 281 280 280 279 278 278 277 276 276 275 275 275 274
285 286 286 285 284 283 282 281 280 280 280 279 278 278 277 276 275 274 274 275 275 274
286 285 285 283 282 282 281 281 281 279 278 278 277 277 276 276 275 274 273 274 275 274
284 283 283 282 281 280 280 279 279 277 277 276 277 280 281 277 275 274 274 273 274 275
283 282 282 280 279 279 278 278 277 277 276 276 276 283 282 280 275 274 274 275 275 275
282 281 279 278 278 277 277 277 276 276 276 275 275 283 283 280 275 275 275 275 275 275
280 279 277 277 277 277 276 276 276 276 275 274 275 283 283 280 276 276 275 275 275 274
279 279 277 278 277 277 276 276 275 274 275 275 274 283 283 280 275 273 274 275 275 277
276 276 277 277 276 276 275 275 274 273 273 274 275 279 283 282 274 273 272 273 273 274